Sexton Summit, OR

1:24 AM PDT on May 23, 2017 (GMT -0700)
Sexton Summit

Weather History for KSXT - February, 2013

Change the Weather History Date:

Tuesday, February 5, 2013

  Actual Average Record
Temperature  
Mean Temperature 34 °F -  
Max Temperature 37 °F 39 °F 46 °F (2015)
Min Temperature 30 °F 30 °F 26 °F (2014)
Degree Days  
Heating Degree Days 32    
Moisture  
Dew Point 32 °F    
Average Humidity 94    
Maximum Humidity 100    
Minimum Humidity 85    
Precipitation  
Precipitation 0.01 in - - ()
Sea Level Pressure  
Sea Level Pressure 29.99 in    
Wind  
Wind Speed 10 mph (SSW)    
Max Wind Speed 17 mph    
Max Gust Speed 23 mph    
Visibility 2 miles    
Events Fog , Rain , Snow    
Averages and records for this station are not official NWS values.
T = Trace of Precipitation, MM = Missing Value Source: NWS Daily Summary

Daily Weather History Graph

Daily Weather History Graph

Search for Another Location

Airport or City:

Trip Planner

Search our weather history database for the weather conditions in past years. The results will help you decide how hot, cold, wet, or windy it might be!

Date:

Astronomy

Feb. 05, 2013 Rise Set
Actual Time 7:22 AM PST 5:32 PM PST
Civil Twilight 6:53 AM PST 6:02 PM PST
Nautical Twilight 6:19 AM PST 6:35 PM PST
Astronomical Twilight 5:46 AM PST 7:08 PM PST
Moon 3:13 AM PST (2/5) 12:53 PM PST (2/5)
Length of Visible Light 11h 09m
Length of Day
10h 10m
Waning Crescent, 25% of the Moon is Illuminated
Feb 5
Waning Crescent
Feb 9
New
Feb 17
First Quarter
Feb 25
Full
Mar 4
Last Quarter

Hourly Weather History & Observations

Time (PST) Temp. Windchill Dew Point Humidity Pressure Visibility Wind Dir Wind Speed Gust Speed Precip Events Conditions
12:56 AM 35.1 °F 25.9 °F 30.9 °F 85% 29.97 in 10.0 mi SSW 13.8 mph 19.6 mph N/A   Clear
1:32 AM 33.8 °F 25.3 °F 32.0 °F 93% 29.96 in 7.0 mi SSW 11.5 mph - N/A   Scattered Clouds
1:37 AM 33.8 °F 25.3 °F 32.0 °F 93% 29.97 in 2.0 mi SSW 11.5 mph 18.4 mph N/A   Mostly Cloudy
1:39 AM 33.8 °F 25.3 °F 32.0 °F 93% 29.96 in 1.0 mi SSW 11.5 mph 18.4 mph N/A   Mist
1:44 AM 33.8 °F 25.8 °F 32.0 °F 93% 29.96 in 0.2 mi SSW 10.4 mph 19.6 mph N/A Fog Fog
1:56 AM 33.1 °F 24.4 °F 32.0 °F 96% 29.98 in 0.2 mi SSW 11.5 mph 20.7 mph N/A Fog Fog
2:52 AM 33.8 °F 26.4 °F 32.0 °F 93% 29.97 in 1.0 mi SW 9.2 mph - N/A   Mist
2:54 AM 33.8 °F 27.0 °F 30.2 °F 87% 29.97 in 2.0 mi SW 8.1 mph - N/A   Mostly Cloudy
2:56 AM 33.1 °F 26.1 °F 30.9 °F 92% 29.99 in 3.0 mi SSW 8.1 mph - N/A   Mostly Cloudy
3:07 AM 32.0 °F 24.8 °F 30.2 °F 93% 29.97 in 1.2 mi SSW 8.1 mph - N/A   Overcast
3:10 AM 32.0 °F 24.8 °F 30.2 °F 93% 29.97 in 2.0 mi SSW 8.1 mph - N/A   Mostly Cloudy
3:18 AM 32.0 °F 24.8 °F 30.2 °F 93% 29.96 in 9.0 mi SSW 8.1 mph - N/A   Mostly Cloudy
3:26 AM 32.0 °F 24.2 °F 30.2 °F 93% 29.96 in 10.0 mi SSW 9.2 mph - N/A   Scattered Clouds
3:35 AM 32.0 °F 24.2 °F 30.2 °F 93% 29.96 in 1.8 mi SSW 9.2 mph - N/A   Scattered Clouds
3:42 AM 32.0 °F 24.2 °F 30.2 °F 93% 29.96 in 1.0 mi SSW 9.2 mph - N/A   Mist
3:52 AM 32.0 °F 24.2 °F 30.2 °F 93% 29.96 in 0.5 mi SSW 9.2 mph - N/A Fog Fog
3:56 AM 32.0 °F 24.2 °F 30.9 °F 96% 29.99 in 0.8 mi SSW 9.2 mph - N/A   Mist
4:00 AM 32.0 °F 24.2 °F 30.2 °F 93% 29.96 in 1.5 mi SSW 9.2 mph - N/A   Mostly Cloudy
4:03 AM 32.0 °F 24.2 °F 30.2 °F 93% 29.96 in 3.0 mi SSW 9.2 mph - N/A   Mostly Cloudy
4:10 AM 32.0 °F 24.8 °F 30.2 °F 93% 29.97 in 1.8 mi SSW 8.1 mph - N/A   Mostly Cloudy
4:18 AM 32.0 °F 25.6 °F 30.2 °F 93% 29.97 in 2.5 mi SW 6.9 mph - N/A   Mostly Cloudy
4:42 AM 32.0 °F 25.6 °F 30.2 °F 93% 29.96 in 7.0 mi SSW 6.9 mph - N/A   Mostly Cloudy
4:56 AM 32.0 °F 24.2 °F 30.9 °F 96% 29.99 in 0.8 mi South 9.2 mph - N/A   Mostly Cloudy
5:06 AM 32.0 °F 24.2 °F 30.2 °F 93% 29.96 in 0.2 mi South 9.2 mph - N/A Fog Fog
5:46 AM 32.0 °F 22.5 °F 30.2 °F 93% 29.95 in 1.0 mi South 12.7 mph - N/A   Overcast
5:49 AM 32.0 °F 22.5 °F 30.2 °F 93% 29.95 in 2.5 mi South 12.7 mph - N/A   Overcast
5:56 AM 32.0 °F 22.5 °F 30.0 °F 92% 29.97 in 9.0 mi South 12.7 mph - N/A   Overcast
6:00 AM 32.0 °F 23.0 °F 30.2 °F 93% 29.94 in 1.0 mi South 11.5 mph - N/A   Overcast
6:04 AM 32.0 °F 21.6 °F 30.2 °F 93% 29.94 in 0.2 mi South 15.0 mph - N/A Fog Fog
6:08 AM 32.0 °F 22.1 °F 30.2 °F 93% 29.94 in 0.2 mi South 13.8 mph - N/A Fog Fog
6:31 AM 32.0 °F 21.2 °F 30.2 °F 93% 29.93 in 0.2 mi South 16.1 mph - N/A Fog Fog
6:41 AM 32.0 °F 20.8 °F 30.2 °F 93% 29.93 in 0.2 mi South 17.3 mph - N/A Fog Fog
6:56 AM 33.1 °F 23.4 °F 32.0 °F 96% 29.97 in 0.2 mi South 13.8 mph - N/A Fog Fog
7:07 AM 33.8 °F 24.3 °F 32.0 °F 93% 29.94 in 0.5 mi South 13.8 mph - N/A Fog Fog
7:32 AM 33.8 °F 24.3 °F 33.8 °F 100% 29.94 in 0.2 mi SSW 13.8 mph 20.7 mph N/A Fog Fog
7:48 AM 33.8 °F 24.3 °F 33.8 °F 100% 29.94 in 0.5 mi SSW 13.8 mph 19.6 mph 0.00 in Fog , Rain Light Rain
7:56 AM 33.1 °F 23.0 °F 33.1 °F 100% 29.98 in 0.2 mi SSW 15.0 mph 20.7 mph 0.00 in Fog , Rain Light Rain
8:53 AM 33.8 °F 26.4 °F 33.8 °F 100% 29.97 in 0.2 mi SSW 9.2 mph - 0.01 in Fog Fog
8:56 AM 34.0 °F 26.0 °F 33.1 °F 96% 30.00 in 0.2 mi SSW 10.4 mph - 0.01 in Fog , Rain Light Rain
9:56 AM 35.1 °F 27.9 °F 34.0 °F 96% 30.00 in 0.2 mi SW 9.2 mph - 0.00 in Fog , Rain Light Rain
10:12 AM 35.6 °F 29.2 °F 33.8 °F 93% 29.98 in 0.2 mi SW 8.1 mph - 0.00 in Fog , Rain Light Rain
10:40 AM 35.6 °F 31.7 °F 33.8 °F 93% 29.99 in 0.2 mi SW 4.6 mph - 0.00 in Fog Fog
10:56 AM 35.1 °F 31.0 °F 34.0 °F 96% 30.02 in 0.2 mi Variable 4.6 mph - 0.00 in Fog Fog
11:32 AM 35.6 °F 29.9 °F 33.8 °F 93% 29.99 in 0.2 mi SSW 6.9 mph - N/A Fog Fog
11:56 AM 35.1 °F 30.1 °F 34.0 °F 96% 30.03 in 0.2 mi SSW 5.8 mph - 0.00 in Fog Fog
12:37 PM 35.6 °F 30.7 °F 33.8 °F 93% 29.99 in 0.2 mi SSW 5.8 mph - 0.00 in Fog Fog
12:56 PM 35.1 °F 29.3 °F 34.0 °F 96% 30.04 in 0.2 mi Variable 6.9 mph - 0.00 in Fog Fog
1:11 PM 35.6 °F 29.9 °F 33.8 °F 93% 29.98 in 1.8 mi Variable 6.9 mph - N/A   Overcast
1:16 PM 35.6 °F 29.9 °F 33.8 °F 93% 29.99 in 10.0 mi SW 6.9 mph - N/A   Mostly Cloudy
1:19 PM 35.6 °F 29.2 °F 33.8 °F 93% 29.99 in 10.0 mi SW 8.1 mph - N/A   Mostly Cloudy
1:48 PM 35.6 °F 31.7 °F 32.0 °F 87% 29.98 in 10.0 mi Variable 4.6 mph 19.6 mph N/A   Scattered Clouds
1:56 PM 35.1 °F 28.6 °F 33.1 °F 92% 30.04 in 10.0 mi SW 8.1 mph - N/A   Scattered Clouds
2:14 PM 37.4 °F - 33.8 °F 87% 29.98 in 10.0 mi Calm Calm - N/A   Mostly Cloudy
2:56 PM 37.0 °F 29.3 °F 33.1 °F 86% 30.04 in 10.0 mi SSW 11.5 mph 21.9 mph N/A   Overcast
3:53 PM 35.6 °F 29.2 °F 33.8 °F 93% 30.00 in 1.5 mi WSW 8.1 mph - 0.00 in Rain Light Rain
3:56 PM 34.0 °F 26.6 °F 33.1 °F 96% 30.06 in 0.5 mi SW 9.2 mph - 0.00 in Fog , Rain Light Rain
4:06 PM 33.8 °F 27.0 °F 33.8 °F 100% 30.00 in 2.0 mi WSW 8.1 mph 17.3 mph 0.00 in   Overcast
4:30 PM 35.6 °F 29.2 °F 32.0 °F 87% 30.00 in 1.8 mi SSW 8.1 mph 23.0 mph 0.00 in   Mostly Cloudy
4:34 PM 35.6 °F 28.0 °F 32.0 °F 87% 30.00 in 3.0 mi SSW 10.4 mph 23.0 mph 0.00 in   Overcast
4:43 PM 33.8 °F 25.8 °F 33.8 °F 100% 30.00 in 10.0 mi SSW 10.4 mph - 0.00 in   Overcast
4:56 PM 34.0 °F 26.6 °F 32.0 °F 92% 30.06 in 10.0 mi SSW 9.2 mph 18.4 mph 0.00 in   Mostly Cloudy
5:35 PM 33.8 °F 24.8 °F 32.0 °F 93% 30.01 in 2.5 mi SSW 12.7 mph - N/A   Overcast
5:37 PM 33.8 °F 25.8 °F 32.0 °F 93% 30.01 in 1.0 mi SSW 10.4 mph 18.4 mph N/A   Overcast
5:42 PM 33.8 °F 25.3 °F 32.0 °F 93% 30.01 in 0.2 mi SSW 11.5 mph - N/A Fog Fog
5:56 PM 33.1 °F 23.9 °F 32.0 °F 96% 30.08 in 0.2 mi SW 12.7 mph 18.4 mph 0.00 in Fog , Snow Light Snow
6:56 PM 33.1 °F 26.1 °F 32.0 °F 96% 30.10 in 0.2 mi SSW 8.1 mph - 0.00 in Fog Fog
7:56 PM 32.0 °F 24.8 °F 30.9 °F 96% 30.11 in 0.2 mi SSW 8.1 mph - N/A Fog Fog
8:56 PM 32.0 °F 23.6 °F 30.9 °F 96% 30.12 in 0.2 mi South 10.4 mph - N/A Fog Fog
9:56 PM 30.9 °F 22.2 °F 30.0 °F 96% 30.14 in 0.2 mi South 10.4 mph - 0.00 in Fog Light Freezing Fog
10:11 PM 30.2 °F 20.2 °F 30.2 °F 100% 30.06 in 0.2 mi South 12.7 mph - 0.00 in Fog , Rain Light Freezing Rain
10:56 PM 30.9 °F 21.7 °F 30.9 °F 100% 30.13 in 0.2 mi South 11.5 mph - 0.00 in Fog , Rain Light Freezing Rain
11:56 PM 30.9 °F 20.7 °F 30.9 °F 100% 30.14 in 0.2 mi SSW 13.8 mph - 0.00 in Fog , Rain Light Freezing Rain